When you browse on this site, cookies collect data to enhance your experience and personalize the content and advertising you see.
Visit our Privacy Policy to learn more. By continuing to use the site, you agree to this use of cookies and data.
  • In Österreich
  • Länderverzeichnis
  • Für 7 Tage
  • Wassertemperatur
  • Satellitenkarten
  • Wetterkarte
  • News
  • Widgets
  • user-avatar
    Anmelden

    Stündliche Wetter Trotwood

    Heute, 22 Juli, Montag

    Zeit Temperatur Niederschläge Wind Luftdruck Luftfeuchtigkeit
    00:00 +24°C° 0 mm 1 m/S 735 mmHg 87%
    01:00 +23°C° 0.2 mm 1 m/S 735 mmHg 89%
    02:00 +23°C° 0.2 mm 1 m/S 734 mmHg 92%
    03:00 +21°C° 0.2 mm 2 m/S 734 mmHg 94%
    04:00 +21°C° 0.7 mm 2 m/S 734 mmHg 94%
    05:00 +21°C° 0.7 mm 2 m/S 734 mmHg 95%
    06:00 +21°C° 0.7 mm 3 m/S 735 mmHg 96%
    07:00 +22°C° 0.5 mm 3 m/S 735 mmHg 94%
    08:00 +22°C° 0.5 mm 3 m/S 735 mmHg 92%
    09:00 +22°C° 0.5 mm 3 m/S 735 mmHg 91%
    10:00 +23°C° 0.1 mm 4 m/S 736 mmHg 89%
    11:00 +23°C° 0.1 mm 4 m/S 736 mmHg 88%
    12:00 +23°C° 0.1 mm 5 m/S 736 mmHg 87%
    13:00 +23°C° 0.1 mm 4 m/S 736 mmHg 87%
    14:00 +24°C° 0.1 mm 3 m/S 736 mmHg 86%
    15:00 +24°C° 0.1 mm 3 m/S 735 mmHg 86%
    16:00 +24°C° 0.1 mm 3 m/S 736 mmHg 87%
    17:00 +22°C° 0.1 mm 3 m/S 736 mmHg 87%
    18:00 +22°C° 0.1 mm 4 m/S 736 mmHg 88%
    19:00 +21°C° 0 mm 4 m/S 736 mmHg 88%
    20:00 +20°C° 0 mm 4 m/S 737 mmHg 89%
    21:00 +18°C° 0 mm 3 m/S 737 mmHg 89%
    22:00 +18°C° 0 mm 3 m/S 737 mmHg 91%
    23:00 +17°C° 0 mm 3 m/S 737 mmHg 92%

    Morgen, 23 Juli, Dienstag

    Zeit Temperatur Niederschläge Wind Luftdruck Luftfeuchtigkeit
    00:00 +16°C° 0 mm 3 m/S 737 mmHg 93%
    01:00 +16°C° 0 mm 3 m/S 737 mmHg 93%
    02:00 +16°C° 0 mm 3 m/S 737 mmHg 93%
    03:00 +14°C° 0 mm 3 m/S 737 mmHg 93%
    04:00 +16°C° 0 mm 3 m/S 738 mmHg 91%
    05:00 +16°C° 0 mm 3 m/S 738 mmHg 89%
    06:00 +16°C° 0 mm 3 m/S 738 mmHg 88%
    07:00 +18°C° 0 mm 3 m/S 739 mmHg 81%
    08:00 +19°C° 0 mm 4 m/S 739 mmHg 75%
    09:00 +21°C° 0 mm 4 m/S 739 mmHg 68%
    10:00 +22°C° 0 mm 4 m/S 739 mmHg 66%
    11:00 +22°C° 0 mm 4 m/S 739 mmHg 63%
    12:00 +23°C° 0 mm 4 m/S 739 mmHg 60%
    13:00 +23°C° 0 mm 4 m/S 739 mmHg 61%
    14:00 +23°C° 0 mm 4 m/S 739 mmHg 62%
    15:00 +25°C° 0 mm 4 m/S 739 mmHg 63%
    16:00 +24°C° 0 mm 3 m/S 739 mmHg 68%
    17:00 +22°C° 0 mm 3 m/S 739 mmHg 73%
    18:00 +21°C° 0 mm 2 m/S 739 mmHg 79%
    19:00 +20°C° 0 mm 2 m/S 739 mmHg 81%
    20:00 +18°C° 0 mm 2 m/S 739 mmHg 83%
    21:00 +17°C° 0 mm 2 m/S 739 mmHg 85%
    22:00 +17°C° 0 mm 2 m/S 739 mmHg 87%
    23:00 +16°C° 0 mm 2 m/S 739 mmHg 88%

    übermorgen, 24 Juli, Mittwoch

    Zeit Temperatur Niederschläge Wind Luftdruck Luftfeuchtigkeit
    00:00 +16°C° 0 mm 2 m/S 739 mmHg 89%
    01:00 +16°C° 0 mm 2 m/S 739 mmHg 90%
    02:00 +15°C° 0 mm 2 m/S 739 mmHg 91%
    03:00 +15°C° 0 mm 2 m/S 739 mmHg 92%
    04:00 +16°C° 0 mm 2 m/S 739 mmHg 92%
    05:00 +16°C° 0 mm 2 m/S 740 mmHg 91%
    06:00 +17°C° 0 mm 2 m/S 740 mmHg 90%
    07:00 +18°C° 0 mm 2 m/S 741 mmHg 84%
    08:00 +20°C° 0 mm 2 m/S 741 mmHg 78%
    09:00 +23°C° 0 mm 2 m/S 741 mmHg 72%
    10:00 +24°C° 0 mm 3 m/S 741 mmHg 69%
    11:00 +25°C° 0 mm 3 m/S 741 mmHg 65%
    12:00 +26°C° 0 mm 3 m/S 741 mmHg 62%
    13:00 +26°C° 0 mm 3 m/S 740 mmHg 62%
    14:00 +26°C° 0 mm 3 m/S 740 mmHg 62%
    15:00 +26°C° 0 mm 2 m/S 740 mmHg 63%
    16:00 +25°C° 0 mm 2 m/S 740 mmHg 67%
    17:00 +25°C° 0 mm 2 m/S 740 mmHg 71%
    18:00 +24°C° 0 mm 1 m/S 740 mmHg 75%
    19:00 +22°C° 0 mm 1 m/S 740 mmHg 77%
    20:00 +21°C° 0 mm 1 m/S 740 mmHg 79%
    21:00 +17°C° 0 mm 0 m/S 740 mmHg 81%
    22:00 +17°C° 0 mm 0 m/S 740 mmHg 82%
    23:00 +17°C° 0 mm 0 m/S 741 mmHg 83%

    25 Juli, Donnerstag

    Zeit Temperatur Niederschläge Wind Luftdruck Luftfeuchtigkeit
    00:00 +16°C° 0 mm 0 m/S 741 mmHg 83%
    01:00 +16°C° 0 mm 0 m/S 741 mmHg 84%
    02:00 +16°C° 0 mm 0 m/S 741 mmHg 84%
    03:00 +15°C° 0 mm 0 m/S 741 mmHg 85%
    04:00 +16°C° 0 mm 0 m/S 741 mmHg 84%
    05:00 +17°C° 0 mm 0 m/S 741 mmHg 83%
    06:00 +20°C° 0 mm 1 m/S 742 mmHg 82%
    07:00 +21°C° 0 mm 1 m/S 742 mmHg 78%
    08:00 +23°C° 0 mm 1 m/S 742 mmHg 74%
    09:00 +24°C° 0 mm 1 m/S 742 mmHg 70%
    10:00 +25°C° 0 mm 1 m/S 742 mmHg 67%
    11:00 +26°C° 0 mm 1 m/S 742 mmHg 65%
    12:00 +27°C° 0 mm 1 m/S 742 mmHg 62%
    13:00 +27°C° 0 mm 1 m/S 742 mmHg 61%
    14:00 +27°C° 0 mm 1 m/S 741 mmHg 61%
    15:00 +27°C° 0 mm 1 m/S 741 mmHg 60%
    16:00 +27°C° 0 mm 1 m/S 741 mmHg 64%
    17:00 +26°C° 0 mm 1 m/S 741 mmHg 69%
    18:00 +25°C° 0 mm 1 m/S 741 mmHg 73%
    19:00 +24°C° 0 mm 1 m/S 742 mmHg 75%
    20:00 +22°C° 0 mm 1 m/S 742 mmHg 76%
    21:00 +21°C° 0 mm 1 m/S 742 mmHg 78%
    22:00 +20°C° 0 mm 1 m/S 742 mmHg 79%
    23:00 +20°C° 0 mm 1 m/S 742 mmHg 80%

    26 Juli, Freitag

    Zeit Temperatur Niederschläge Wind Luftdruck Luftfeuchtigkeit
    00:00 +19°C° 0 mm 1 m/S 742 mmHg 82%
    01:00 +19°C° 0 mm 1 m/S 742 mmHg 82%
    02:00 +18°C° 0 mm 1 m/S 742 mmHg 83%
    03:00 +18°C° 0 mm 1 m/S 742 mmHg 84%
    04:00 +19°C° 0 mm 1 m/S 742 mmHg 84%
    05:00 +19°C° 0 mm 1 m/S 742 mmHg 83%
    06:00 +20°C° 0 mm 1 m/S 743 mmHg 83%
    07:00 +22°C° 0 mm 1 m/S 743 mmHg 79%
    08:00 +24°C° 0 mm 1 m/S 743 mmHg 75%
    09:00 +26°C° 0 mm 2 m/S 744 mmHg 70%
    10:00 +27°C° 0 mm 2 m/S 743 mmHg 67%
    11:00 +28°C° 0 mm 2 m/S 743 mmHg 64%
    12:00 +29°C° 0 mm 3 m/S 743 mmHg 61%
    13:00 +29°C° 0 mm 2 m/S 743 mmHg 61%
    14:00 +29°C° 0 mm 2 m/S 743 mmHg 61%
    15:00 +29°C° 0 mm 2 m/S 742 mmHg 61%
    16:00 +28°C° 0 mm 2 m/S 742 mmHg 66%
    17:00 +27°C° 0 mm 2 m/S 742 mmHg 71%
    18:00 +26°C° 0 mm 1 m/S 742 mmHg 76%
    19:00 +25°C° 0 mm 1 m/S 742 mmHg 78%
    20:00 +24°C° 0 mm 1 m/S 742 mmHg 80%
    21:00 +22°C° 0 mm 1 m/S 743 mmHg 82%
    22:00 +22°C° 0 mm 1 m/S 743 mmHg 83%
    23:00 +21°C° 0 mm 1 m/S 743 mmHg 85%

    27 Juli, Samstag

    Zeit Temperatur Niederschläge Wind Luftdruck Luftfeuchtigkeit
    00:00 +20°C° 0 mm 2 m/S 743 mmHg 86%
    01:00 +20°C° 0 mm 2 m/S 743 mmHg 87%
    02:00 +19°C° 0 mm 2 m/S 743 mmHg 88%
    03:00 +19°C° 0 mm 2 m/S 743 mmHg 89%
    04:00 +20°C° 0 mm 2 m/S 743 mmHg 89%
    05:00 +20°C° 0 mm 2 m/S 743 mmHg 89%
    06:00 +21°C° 0 mm 2 m/S 743 mmHg 89%
    07:00 +24°C° 0.1 mm 2 m/S 744 mmHg 83%
    08:00 +26°C° 0.1 mm 3 m/S 744 mmHg 78%
    09:00 +28°C° 0.1 mm 4 m/S 744 mmHg 73%
    10:00 +28°C° 0.1 mm 4 m/S 744 mmHg 70%
    11:00 +29°C° 0.1 mm 4 m/S 744 mmHg 66%
    12:00 +30°C° 0.1 mm 4 m/S 744 mmHg 63%
    13:00 +30°C° 0.1 mm 4 m/S 743 mmHg 64%
    14:00 +30°C° 0.1 mm 4 m/S 743 mmHg 65%
    15:00 +30°C° 0.1 mm 4 m/S 743 mmHg 66%
    16:00 +29°C° 0.1 mm 3 m/S 743 mmHg 70%
    17:00 +28°C° 0.1 mm 3 m/S 742 mmHg 73%
    18:00 +27°C° 0.1 mm 2 m/S 742 mmHg 77%
    19:00 +25°C° 0 mm 2 m/S 742 mmHg 78%
    20:00 +24°C° 0 mm 2 m/S 743 mmHg 80%
    21:00 +23°C° 0 mm 2 m/S 743 mmHg 81%
    22:00 +23°C° 0 mm 2 m/S 743 mmHg 82%
    23:00 +21°C° 0 mm 2 m/S 742 mmHg 84%
    Mehr zeigen